Location: Arleux
(50.3632°N, 2.8721°E)
Time: 05:41:08
(UTC+00:00)

FENGYUN 3A - Pass Details

Date: 15 December 2019
Orbit: 823 x 837 km, 98.4° (Epoch: 17 January)

Event Time Altitude Azimuth Distance (km) Brightness Sun altitude
Rises 05:28:46 0° 14° (NNE) 3,379 6.9 -20.0°
Reaches altitude 10° 05:31:08 10° 14° (NNE) 2,439 6.1 -19.6°
Maximum altitude 05:36:33 86° 287° (WNW) 833 3.6 -18.8°
Drops below altitude 10° 05:41:55 10° 198° (SSW) 2,418 6.0 -17.9°
Sets 05:44:15 0° 198° (SSW) 3,346 6.8 -17.6°
